,,Stat6,,Stat2,,Stat8,,Stat9,,Stat10,,Wind1,,Wind1,
time,status,PA1M_AVG,status,PR1M_SUM,status,RH1M_AVG,status,SR1M_AVG,status,TA1M_AVG,status,W1dAve1m,status,W1sAve1m,
2006-04-25, 00:00:00,VALID,917.885,VALID,0,VALID,99.587,VALID,-0.254712,VALID,18.9047,VALID,24,VALID,1.27668,
2006-04-25, 00:01:00,VALID,917.887,VALID,0,VALID,99.5437,VALID,-0.220751,VALID,19.4662,VALID,19,VALID,1.29812,
2006-04-25, 00:02:00,VALID,917.892,VALID,0,VALID,99.793,VALID,-0.271693,VALID,18.7436,VALID,18,VALID,1.05,
2006-04-25, 00:03:00,VALID,917.893,VALID,0,VALID,99.9501,VALID,-0.288674,VALID,19.4528,VALID,18,VALID,1.07213,
2006-04-25, 00:04:00,VALID,917.895,VALID,0,VALID,99.9606,VALID,-0.288674,VALID,19.9216,VALID,16,VALID,0.989648,
2006-04-25, 00:05:00,VALID,917.882,VALID,0,VALID,100,VALID,-0.271693,VALID,18.8713,VALID,14,VALID,0.784784,
2006-04-25, 00:06:00,VALID,917.877,VALID,0,VALID,99.9603,VALID,-0.305655,VALID,19.2568,VALID,14,VALID,0.463006,
2006-04-25, 00:07:00,VALID,917.854,VALID,0,VALID,99.9654,VALID,-0.373578,VALID,18.9822,VALID,14,VALID,0.625381,
2006-04-25, 00:08:00,VALID,917.842,VALID,0,VALID,99.9756,VALID,-0.271693,VALID,18.9489,VALID,14,VALID,0.527344,
2006-04-25, 00:09:00,VALID,917.827,VALID,0,VALID,99.91,VALID,-0.288674,VALID,18.8826,VALID,1,VALID,0.439757,
2006-04-25, 00:10:00,VALID,917.831,VALID,0,VALID,99.9807,VALID,-0.237732,VALID,18.7865,VALID,346,VALID,0.363009,
2006-04-25, 00:11:00,VALID,917.836,VALID,0,VALID,99.7955,VALID,-0.288674,VALID,19.1681,VALID,346,VALID,0.0298611,
2006-04-25, 00:12:00,VALID,917.823,VALID,0,VALID,99.395,VALID,-0.305655,VALID,18.9542,VALID,346,VALID,0.101963,
2006-04-25, 00:13:00,VALID,917.839,VALID,0,VALID,99.4725,VALID,-0.288674,VALID,19.1515,VALID,346,VALID,0.245998,
2006-04-25, 00:14:00,VALID,917.84,VALID,0,VALID,99.5132,VALID,-0.322636,VALID,19.1874,VALID,346,VALID,0.349276,
2006-04-25, 00:15:00,VALID,917.845,VALID,0,VALID,99.8624,VALID,-0.288674,VALID,18.9174,VALID,346,VALID,0.411111,
2006-04-25, 00:16:00,VALID,917.844,VALID,0,VALID,100,VALID,-0.271693,VALID,19.3174,VALID,346,VALID,0.392299,
2006-04-25, 00:17:00,VALID,917.861,VALID,0,VALID,100,VALID,-0.271693,VALID,19.3309,VALID,346,VALID,0.243421,
2006-04-25, 00:18:00,VALID,917.879,VALID,0,VALID,100,VALID,-0.271693,VALID,19.7023,VALID,346,VALID,0.195703,
2006-04-25, 00:19:00,VALID,917.883,VALID,0,VALID,100,VALID,-0.254712,VALID,19.5925,VALID,346,VALID,0.457775,
2006-04-25, 00:20:00,VALID,917.867,VALID,0,VALID,99.9964,VALID,-0.254712,VALID,19.0562,VALID,346,VALID,0.560764,
2006-04-25, 00:21:00,VALID,917.846,VALID,0,VALID,99.5298,VALID,-0.237732,VALID,19.0769,VALID,346,VALID,0.67024,
2006-04-25, 00:22:00,VALID,917.822,VALID,0,VALID,99.3263,VALID,-0.220751,VALID,19.4842,VALID,347,VALID,0.538318,
2006-04-25, 00:23:00,VALID,917.794,VALID,0,VALID,99.1826,VALID,-0.288674,VALID,19.5133,VALID,347,VALID,0.556212,
2006-04-25, 00:24:00,VALID,917.787,VALID,0,VALID,99.6022,VALID,-0.288674,VALID,19.2522,VALID,347,VALID,0.444169,
2006-04-25, 00:25:00,VALID,917.766,VALID,0,VALID,99.7345,VALID,-0.254712,VALID,19.3835,VALID,347,VALID,0.359961,
2006-04-25, 00:26:00,VALID,917.746,VALID,0,VALID,99.8896,VALID,-0.254712,VALID,19.4771,VALID,347,VALID,0.480469,
2006-04-25, 00:27:00,VALID,917.731,VALID,0,VALID,100,VALID,-0.254712,VALID,19.7339,VALID,346,VALID,0.617188,
2006-04-25, 00:28:00,VALID,917.717,VALID,0,VALID,99.9715,VALID,-0.271693,VALID,19.0635,VALID,8,VALID,0.744004,
2006-04-25, 00:29:00,VALID,917.7,VALID,0,VALID,99.9214,VALID,-0.271693,VALID,18.8954,VALID,16,VALID,0.733285,
2006-04-25, 00:30:00,VALID,917.711,VALID,0,VALID,99.8604,VALID,-0.271693,VALID,19.4063,VALID,16,VALID,0.398268,
2006-04-25, 00:31:00,VALID,917.713,VALID,0,VALID,99.7904,VALID,-0.271693,VALID,19.0805,VALID,16,VALID,0.543324,
2006-04-25, 00:32:00,VALID,917.713,VALID,0,VALID,99.9741,VALID,-0.271693,VALID,19.1386,VALID,5,VALID,0.565225,
2006-04-25, 00:33:00,VALID,917.709,VALID,0,VALID,100,VALID,-0.305655,VALID,19.5965,VALID,340,VALID,0.416903,
2006-04-25, 00:34:00,VALID,917.7,VALID,0,VALID,99.9853,VALID,-0.288674,VALID,18.4862,VALID,340,VALID,0.465199,
2006-04-25, 00:35:00,VALID,917.68,VALID,0,VALID,99.9713,VALID,-0.271693,VALID,19.5381,VALID,341,VALID,0.344113,
2006-04-25, 00:36:00,VALID,917.662,VALID,0,VALID,100,VALID,-0.305655,VALID,19.1137,VALID,341,VALID,0.351042,
2006-04-25, 00:37:00,VALID,917.651,VALID,0,VALID,100,VALID,-0.271693,VALID,18.695,VALID,1,VALID,0.73125,
2006-04-25, 00:38:00,VALID,917.65,VALID,0,VALID,99.9891,VALID,-0.254712,VALID,18.7299,VALID,8,VALID,0.597098,
2006-04-25, 00:39:00,VALID,917.645,VALID,0,VALID,100,VALID,-0.288674,VALID,18.6373,VALID,8,VALID,0.606213,
2006-04-25, 00:40:00,VALID,917.65,VALID,0,VALID,100,VALID,-0.237732,VALID,19.0091,VALID,8,VALID,0.497713,
2006-04-25, 00:41:00,VALID,917.638,VALID,0,VALID,99.9888,VALID,-0.186789,VALID,19.1922,VALID,8,VALID,0.385231,
2006-04-25, 00:42:00,VALID,917.633,VALID,0,VALID,99.9023,VALID,-0.220751,VALID,18.5767,VALID,8,VALID,0.461825,
2006-04-25, 00:43:00,VALID,917.613,VALID,0,VALID,100,VALID,-0.220751,VALID,19.1338,VALID,8,VALID,0.361133,
2006-04-25, 00:44:01,VALID,917.594,VALID,0,VALID,99.999,VALID,-0.186789,VALID,19.4642,VALID,358,VALID,0.301711,
2006-04-25, 00:45:00,VALID,917.582,VALID,0,VALID,100,VALID,-0.20377,VALID,18.7319,VALID,352,VALID,0.173018,
2006-04-25, 00:46:00,VALID,917.562,VALID,0,VALID,100,VALID,-0.20377,VALID,19.9643,VALID,352,VALID,0.278706,
2006-04-25, 00:47:00,VALID,917.55,VALID,0,VALID,100,VALID,-0.20377,VALID,18.3007,VALID,352,VALID,0.0546875,
2006-04-25, 00:48:00,VALID,917.548,VALID,0,VALID,100,VALID,-0.20377,VALID,18.9227,VALID,352,VALID,0,
2006-04-25, 00:49:00,VALID,917.533,VALID,0,VALID,100,VALID,-0.237732,VALID,19.1464,VALID,352,VALID,0,
2006-04-25, 00:50:00,VALID,917.518,VALID,0,VALID,100,VALID,-0.322636,VALID,18.5881,VALID,352,VALID,0,
2006-04-25, 00:51:00,VALID,917.51,VALID,0,VALID,100,VALID,-0.305655,VALID,18.9304,VALID,352,VALID,0,
2006-04-25, 00:52:01,VALID,917.494,VALID,0,VALID,100,VALID,-0.305655,VALID,19.0425,VALID,352,VALID,0,
2006-04-25, 00:53:00,VALID,917.466,VALID,0,VALID,100,VALID,-0.288674,VALID,19.3391,VALID,352,VALID,0,
2006-04-25, 00:54:00,VALID,917.468,VALID,0,VALID,100,VALID,-0.20377,VALID,19.4652,VALID,352,VALID,0.242365,
2006-04-25, 00:55:00,VALID,917.474,VALID,0,VALID,100,VALID,-0.237732,VALID,18.9053,VALID,352,VALID,0.282366,
2006-04-25, 00:56:00,VALID,917.474,VALID,0,VALID,100,VALID,-0.220751,VALID,18.7409,VALID,352,VALID,0.21513,
2006-04-25, 00:57:00,VALID,917.472,VALID,0,VALID,100,VALID,-0.220751,VALID,19.6466,VALID,352,VALID,0.153392,
2006-04-25, 00:58:01,VALID,917.48,VALID,0,VALID,100,VALID,-0.305655,VALID,18.7981,VALID,352,VALID,0.0125363,
2006-04-25, 00:59:00,VALID,917.49,VALID,0,VALID,100,VALID,-0.339617,VALID,18.2159,VALID,352,VALID,0.273624,
2006-04-25, 01:00:00,VALID,917.475,VALID,0,VALID,100,VALID,-0.322636,VALID,17.8973,VALID,352,VALID,0.191236,
2006-04-25, 01:01:00,VALID,917.456,VALID,0,VALID,100,VALID,-0.288674,VALID,18.9859,VALID,352,VALID,0.0104167,
2006-04-25, 01:02:00,VALID,917.457,VALID,0,VALID,100,VALID,-0.220751,VALID,18.6637,VALID,352,VALID,0.0558764,
2006-04-25, 01:03:00,VALID,917.448,VALID,0,VALID,100,VALID,-0.20377,VALID,19.5483,VALID,352,VALID,0.317145,
2006-04-25, 01:04:00,VALID,917.441,VALID,0,VALID,100,VALID,-0.220751,VALID,19.1672,VALID,352,VALID,0.347301,
2006-04-25, 01:05:00,VALID,917.421,VALID,0,VALID,100,VALID,-0.20377,VALID,19.0813,VALID,336,VALID,0.338068,
2006-04-25, 01:06:00,VALID,917.404,VALID,0,VALID,100,VALID,-0.220751,VALID,18.8574,VALID,335,VALID,0.267933,
2006-04-25, 01:07:00,VALID,917.389,VALID,0,VALID,100,VALID,-0.288674,VALID,19.0194,VALID,335,VALID,0.432958,
2006-04-25, 01:08:01,VALID,917.36,VALID,0,VALID,100,VALID,-0.271693,VALID,19.1839,VALID,336,VALID,0.586509,
2006-04-25, 01:09:00,VALID,917.332,VALID,0,VALID,100,VALID,-0.305655,VALID,18.8012,VALID,344,VALID,0.550037,
2006-04-25, 01:10:00,VALID,917.313,VALID,0,VALID,100,VALID,-0.271693,VALID,18.8375,VALID,1,VALID,0.914268,
2006-04-25, 01:11:00,VALID,917.308,VALID,0,VALID,99.7915,VALID,-0.271693,VALID,17.96,VALID,23,VALID,0.428416,
2006-04-25, 01:12:01,VALID,917.301,VALID,0,VALID,99.5794,VALID,-0.288674,VALID,18.5218,VALID,23,VALID,0.240885,
2006-04-25, 01:13:01,VALID,917.291,VALID,0,VALID,99.7993,VALID,-0.305655,VALID,18.6789,VALID,23,VALID,0.155523,
2006-04-25, 01:14:01,VALID,917.286,VALID,0,VALID,100,VALID,-0.305655,VALID,18.687,VALID,4,VALID,0.375355,
2006-04-25, 01:15:00,VALID,917.28,VALID,0,VALID,100,VALID,-0.305655,VALID,18.5347,VALID,349,VALID,0.131479,
2006-04-25, 01:16:00,VALID,917.251,VALID,0,VALID,100,VALID,-0.271693,VALID,18.9009,VALID,349,VALID,0,
2006-04-25, 01:17:00,VALID,917.237,VALID,0,VALID,100,VALID,-0.288674,VALID,19.1173,VALID,349,VALID,0.320694,
2006-04-25, 01:18:00,VALID,917.228,VALID,0,VALID,99.9268,VALID,-0.271693,VALID,18.9257,VALID,7,VALID,0.601563,
2006-04-25, 01:19:00,VALID,917.218,VALID,0,VALID,99.4408,VALID,-0.305655,VALID,18.6385,VALID,28,VALID,0.637305,
2006-04-25, 01:20:00,VALID,917.225,VALID,0,VALID,99.9486,VALID,-0.288674,VALID,18.8988,VALID,337,VALID,0.664634,
2006-04-25, 01:21:00,VALID,917.209,VALID,0,VALID,100,VALID,-0.254712,VALID,18.6624,VALID,239,VALID,0.993608,
2006-04-25, 01:22:00,VALID,917.202,VALID,0,VALID,100,VALID,-0.254712,VALID,19.0322,VALID,247,VALID,0.623512,
2006-04-25, 01:23:01,VALID,917.189,VALID,0,VALID,100,VALID,-0.305655,VALID,18.8456,VALID,295,VALID,0.548473,
2006-04-25, 01:24:01,VALID,917.181,VALID,0,VALID,100,VALID,-0.271693,VALID,19.6902,VALID,15,VALID,0.719922,
2006-04-25, 01:25:01,VALID,917.174,VALID,0,VALID,100,VALID,-0.271693,VALID,18.9626,VALID,22,VALID,0.935594,
2006-04-25, 01:26:01,VALID,917.159,VALID,0,VALID,100,VALID,-0.288674,VALID,18.5455,VALID,356,VALID,0.519354,
2006-04-25, 01:27:00,VALID,917.135,VALID,0,VALID,100,VALID,-0.322636,VALID,19.0194,VALID,315,VALID,0.469295,
2006-04-25, 01:28:01,VALID,917.112,VALID,0,VALID,100,VALID,-0.288674,VALID,18.3187,VALID,239,VALID,0.985328,
2006-04-25, 01:29:00,VALID,917.101,VALID,0,VALID,100,VALID,-0.220751,VALID,18.4674,VALID,258,VALID,0.46439,
2006-04-25, 01:30:01,VALID,917.073,VALID,0,VALID,100,VALID,-0.305655,VALID,19.0708,VALID,305,VALID,0.258185,
2006-04-25, 01:31:00,VALID,917.055,VALID,0,VALID,100,VALID,-0.305655,VALID,18.9599,VALID,29,VALID,0.871366,
2006-04-25, 01:32:00,VALID,917.053,VALID,0,VALID,100,VALID,-0.271693,VALID,19.1747,VALID,22,VALID,0.726563,
2006-04-25, 01:33:00,VALID,917.065,VALID,0,VALID,100,VALID,-0.271693,VALID,18.4945,VALID,353,VALID,0.697129,
2006-04-25, 01:34:00,VALID,917.068,VALID,0,VALID,100,VALID,-0.288674,VALID,17.6215,VALID,326,VALID,0.669034,
2006-04-25, 01:35:01,VALID,917.054,VALID,0,VALID,100,VALID,-0.305655,VALID,18.5028,VALID,325,VALID,0.632626,
2006-04-25, 01:36:00,VALID,917.039,VALID,0,VALID,100,VALID,-0.288674,VALID,19.5371,VALID,355,VALID,0.446501,
2006-04-25, 01:37:01,VALID,917.032,VALID,0,VALID,100,VALID,-0.271693,VALID,18.2998,VALID,1,VALID,0.65346,
2006-04-25, 01:38:01,VALID,917.021,VALID,0,VALID,100,VALID,-0.339617,VALID,18.5108,VALID,13,VALID,0.720424,
2006-04-25, 01:39:01,VALID,917.035,VALID,0,VALID,100,VALID,-0.220751,VALID,18.6968,VALID,13,VALID,0.70585,
2006-04-25, 01:40:00,VALID,917.037,VALID,0,VALID,100,VALID,-0.288674,VALID,18.3573,VALID,12,VALID,0.495276,
2006-04-25, 01:41:00,VALID,917.037,VALID,0,VALID,100,VALID,-0.288674,VALID,19.0428,VALID,348,VALID,0.621548,
2006-04-25, 01:42:00,VALID,916.998,VALID,0,VALID,100,VALID,-0.288674,VALID,18.7435,VALID,345,VALID,0.287109,
2006-04-25, 01:43:00,VALID,916.99,VALID,0,VALID,100,VALID,-0.271693,VALID,18.3746,VALID,345,VALID,0.138494,
2006-04-25, 01:44:00,VALID,916.96,VALID,0,VALID,100,VALID,-0.271693,VALID,19.6628,VALID,345,VALID,0.207667,
2006-04-25, 01:45:01,VALID,916.965,VALID,0,VALID,100,VALID,-0.288674,VALID,19.0076,VALID,345,VALID,0.170785,
2006-04-25, 01:46:01,VALID,916.97,VALID,0,VALID,100,VALID,-0.271693,VALID,18.0859,VALID,345,VALID,0,
2006-04-25, 01:47:00,VALID,916.96,VALID,0,VALID,100,VALID,-0.237732,VALID,18.1894,VALID,345,VALID,0.0292969,
2006-04-25, 01:48:01,VALID,916.965,VALID,0,VALID,100,VALID,-0.373578,VALID,18.9828,VALID,345,VALID,0.0836509,
2006-04-25, 01:49:01,VALID,916.949,VALID,0,VALID,100,VALID,-0.373578,VALID,18.3433,VALID,345,VALID,0,
2006-04-25, 01:50:01,VALID,916.937,VALID,0,VALID,100,VALID,-0.254712,VALID,18.4337,VALID,347,VALID,0.46076,
2006-04-25, 01:51:00,VALID,916.932,VALID,0,VALID,100,VALID,-0.271693,VALID,19.6253,VALID,353,VALID,0.648242,
2006-04-25, 01:52:01,VALID,916.923,VALID,0,VALID,100,VALID,-0.254712,VALID,18.1233,VALID,3,VALID,0.802202,
2006-04-25, 01:53:01,VALID,916.924,VALID,0,VALID,100,VALID,-0.254712,VALID,18.7053,VALID,359,VALID,0.710747,
2006-04-25, 01:54:00,VALID,916.925,VALID,0,VALID,100,VALID,-0.271693,VALID,18.9556,VALID,357,VALID,0.63299,
2006-04-25, 01:55:00,VALID,916.933,VALID,0,VALID,100,VALID,-0.254712,VALID,18.45,VALID,357,VALID,0.590402,
2006-04-25, 01:56:01,VALID,916.93,VALID,0,VALID,100,VALID,-0.254712,VALID,17.7226,VALID,353,VALID,0.62593,
2006-04-25, 01:57:00,VALID,916.914,VALID,0,VALID,100,VALID,-0.288674,VALID,18.3226,VALID,7,VALID,0.508956,
2006-04-25, 01:58:01,VALID,916.877,VALID,0,VALID,100,VALID,-0.288674,VALID,18.7782,VALID,11,VALID,0.539789,
2006-04-25, 01:59:00,VALID,916.863,VALID,0,VALID,100,VALID,-0.237732,VALID,18.2246,VALID,19,VALID,0.470385,
2006-04-25, 02:00:00,VALID,916.859,VALID,0,VALID,100,VALID,-0.339617,VALID,19.069,VALID,19,VALID,0.47247,
2006-04-25, 02:01:00,VALID,916.85,VALID,0,VALID,100,VALID,-0.322636,VALID,18.071,VALID,19,VALID,0.672619,
2006-04-25, 02:02:01,VALID,916.836,VALID,0,VALID,100,VALID,-0.339617,VALID,18.3299,VALID,23,VALID,0.653646,
2006-04-25, 02:03:00,VALID,916.83,VALID,0,VALID,100,VALID,-0.305655,VALID,18.7936,VALID,23,VALID,0.4875,
2006-04-25, 02:04:01,VALID,916.821,VALID,0,VALID,100,VALID,-0.322636,VALID,18.4769,VALID,19,VALID,0.484012,
2006-04-25, 02:05:00,VALID,916.808,VALID,0,VALID,100,VALID,-0.305655,VALID,17.91,VALID,10,VALID,0.296503,
2006-04-25, 02:06:00,VALID,916.782,VALID,0,VALID,100,VALID,-0.237732,VALID,18.1018,VALID,357,VALID,0.344922,
2006-04-25, 02:07:01,VALID,916.762,VALID,0,VALID,100,VALID,-0.254712,VALID,18.211,VALID,4,VALID,0.75,
2006-04-25, 02:08:01,VALID,916.769,VALID,0,VALID,100,VALID,-0.356597,VALID,18.0295,VALID,11,VALID,0.571837,
2006-04-25, 02:09:01,VALID,916.743,VALID,0,VALID,100,VALID,-0.339617,VALID,18.0212,VALID,7,VALID,0.122142,
2006-04-25, 02:10:00,VALID,916.729,VALID,0,VALID,100,VALID,-0.373578,VALID,18.8821,VALID,342,VALID,0.327753,
2006-04-25, 02:11:00,VALID,916.717,VALID,0,VALID,100,VALID,-0.288674,VALID,18.6958,VALID,345,VALID,0.0846946,
2006-04-25, 02:12:00,VALID,916.714,VALID,0,VALID,100,VALID,-0.305655,VALID,18.4125,VALID,345,VALID,0,
2006-04-25, 02:13:00,VALID,916.684,VALID,0,VALID,100,VALID,-0.288674,VALID,18.6441,VALID,345,VALID,0.0977431,
2006-04-25, 02:14:01,VALID,916.661,VALID,0,VALID,100,VALID,-0.305655,VALID,18.5516,VALID,285,VALID,0.412388,
2006-04-25, 02:15:00,VALID,916.641,VALID,0,VALID,100,VALID,-0.305655,VALID,19.3873,VALID,227,VALID,0.439499,
2006-04-25, 02:16:00,VALID,916.647,VALID,0,VALID,100,VALID,-0.305655,VALID,18.356,VALID,213,VALID,0.210547,
2006-04-25, 02:17:01,VALID,916.648,VALID,0,VALID,100,VALID,-0.288674,VALID,18.0679,VALID,211,VALID,0.108648,
2006-04-25, 02:18:00,VALID,916.64,VALID,0,VALID,100,VALID,-0.305655,VALID,18.2934,VALID,196,VALID,0.458519,
2006-04-25, 02:19:00,VALID,916.63,VALID,0,VALID,100,VALID,-0.305655,VALID,18.1455,VALID,180,VALID,0.600472,
2006-04-25, 02:20:00,VALID,916.641,VALID,0,VALID,100,VALID,-0.288674,VALID,17.8472,VALID,172,VALID,0.506944,
2006-04-25, 02:21:00,VALID,916.63,VALID,0,VALID,100,VALID,-0.271693,VALID,18.2154,VALID,138,VALID,0.65439,
2006-04-25, 02:22:00,VALID,916.625,VALID,0,VALID,91.439,VALID,2.8729,VALID,18.8226,VALID,138,VALID,0.502604,
2006-04-25, 02:23:00,VALID,916.604,VALID,0,VALID,91.4734,VALID,-0.73459,VALID,17.1055,VALID,147,VALID,0.688889,
2006-04-25, 02:24:01,VALID,916.571,VALID,0,VALID,100,VALID,-0.305655,VALID,17.4834,VALID,110,VALID,0.556734,
2006-04-25, 02:25:01,VALID,916.555,VALID,0,VALID,100,VALID,-0.237732,VALID,17.065,VALID,88,VALID,0.706676,
2006-04-25, 02:26:01,VALID,916.568,VALID,0,VALID,100,VALID,-0.288674,VALID,17.6978,VALID,90,VALID,0.451029,
2006-04-25, 02:27:01,VALID,916.566,VALID,0,VALID,100,VALID,-0.322636,VALID,17.8279,VALID,100,VALID,0.693403,
2006-04-25, 02:28:00,VALID,916.554,VALID,0,VALID,100,VALID,-0.220751,VALID,18.1243,VALID,115,VALID,0.912157,
2006-04-25, 02:29:01,VALID,916.536,VALID,0,VALID,100,VALID,-0.220751,VALID,18.3868,VALID,126,VALID,0.78853,
2006-04-25, 02:30:00,VALID,916.537,VALID,0,VALID,100,VALID,-0.20377,VALID,18.8376,VALID,137,VALID,0.704613,
2006-04-25, 02:31:01,VALID,916.535,VALID,0,VALID,100,VALID,-0.20377,VALID,18.8985,VALID,144,VALID,0.741211,
2006-04-25, 02:32:01,VALID,916.531,VALID,0,VALID,100,VALID,-0.20377,VALID,18.0078,VALID,144,VALID,0.0904796,
2006-04-25, 02:33:00,VALID,916.533,VALID,0,VALID,100,VALID,-0.20377,VALID,18.6202,VALID,144,VALID,0,
2006-04-25, 02:34:01,VALID,916.507,VALID,0,VALID,100,VALID,-0.305655,VALID,18.663,VALID,144,VALID,0,
2006-04-25, 02:35:01,VALID,916.46,VALID,0,VALID,100,VALID,-0.305655,VALID,18.7798,VALID,144,VALID,0,
2006-04-25, 02:36:01,VALID,916.418,VALID,0,VALID,100,VALID,-0.305655,VALID,17.6736,VALID,144,VALID,0.00223214,
2006-04-25, 02:37:01,VALID,916.4,VALID,0,VALID,100,VALID,-0.305655,VALID,17.8455,VALID,144,VALID,0,
2006-04-25, 02:38:01,VALID,916.379,VALID,0,VALID,100,VALID,-0.305655,VALID,18.1673,VALID,144,VALID,0,
2006-04-25, 02:39:01,VALID,916.377,VALID,0,VALID,100,VALID,-0.305655,VALID,18.4774,VALID,144,VALID,0.0949929,
2006-04-25, 02:40:01,VALID,916.359,VALID,0,VALID,100,VALID,-0.305655,VALID,18.3666,VALID,144,VALID,0.0807884,
2006-04-25, 02:41:01,VALID,916.366,VALID,0,VALID,100,VALID,-0.305655,VALID,18.7494,VALID,144,VALID,0,
2006-04-25, 02:42:01,VALID,916.359,VALID,0,VALID,100,VALID,-0.271693,VALID,18.294,VALID,144,VALID,0,
2006-04-25, 02:43:01,VALID,916.349,VALID,0,VALID,100,VALID,-0.237732,VALID,18.7968,VALID,144,VALID,0,
2006-04-25, 02:44:00,VALID,916.342,VALID,0,VALID,100,VALID,-0.254712,VALID,17.9145,VALID,144,VALID,0.190557,
2006-04-25, 02:45:01,VALID,916.318,VALID,0,VALID,100,VALID,-0.305655,VALID,19.1131,VALID,144,VALID,0.381669,
2006-04-25, 02:46:01,VALID,916.291,VALID,0,VALID,100,VALID,-0.237732,VALID,18.5858,VALID,144,VALID,0.479651,
2006-04-25, 02:47:01,VALID,916.273,VALID,0,VALID,100,VALID,-0.237732,VALID,19.3904,VALID,144,VALID,0.600229,
2006-04-25, 02:48:00,VALID,916.264,VALID,0,VALID,100,VALID,-0.271693,VALID,18.593,VALID,142,VALID,0.457589,
2006-04-25, 02:49:01,VALID,916.255,VALID,0,VALID,100,VALID,-0.254712,VALID,19.008,VALID,142,VALID,0.300967,
2006-04-25, 02:50:01,VALID,916.261,VALID,0,VALID,100,VALID,-0.254712,VALID,18.0002,VALID,142,VALID,0,
2006-04-25, 02:51:00,VALID,916.264,VALID,0,VALID,100,VALID,-0.322636,VALID,18.3754,VALID,142,VALID,0,
2006-04-25, 02:52:01,VALID,916.269,VALID,0,VALID,100,VALID,-0.322636,VALID,19.3511,VALID,142,VALID,0.153587,
2006-04-25, 02:53:01,VALID,916.276,VALID,0,VALID,100,VALID,-0.237732,VALID,18.1276,VALID,142,VALID,0.271569,
2006-04-25, 02:54:01,VALID,916.271,VALID,0,VALID,100,VALID,-0.288674,VALID,19.5952,VALID,142,VALID,0.15968,
2006-04-25, 02:55:01,VALID,916.272,VALID,0,VALID,100,VALID,-0.305655,VALID,18.0633,VALID,142,VALID,0.231399,
2006-04-25, 02:56:01,VALID,916.282,VALID,0,VALID,100,VALID,-0.305655,VALID,18.5567,VALID,142,VALID,0.0897529,
2006-04-25, 02:57:01,VALID,916.287,VALID,0,VALID,100,VALID,-0.288674,VALID,18.6487,VALID,142,VALID,0.119141,
2006-04-25, 02:58:01,VALID,916.303,VALID,0,VALID,100,VALID,-0.305655,VALID,18.9472,VALID,140,VALID,0.288881,
2006-04-25, 02:59:01,VALID,916.282,VALID,0,VALID,100,VALID,-0.254712,VALID,18.2353,VALID,51,VALID,0.50093,
2006-04-25, 03:00:01,VALID,916.261,VALID,0,VALID,100,VALID,-0.271693,VALID,18.639,VALID,51,VALID,0.620999,
2006-04-25, 03:01:01,VALID,916.231,VALID,0,VALID,100,VALID,-0.288674,VALID,18.3126,VALID,51,VALID,0.41639,
2006-04-25, 03:02:01,VALID,916.228,VALID,0,VALID,100,VALID,-0.305655,VALID,18.9017,VALID,51,VALID,0.441315,
2006-04-25, 03:03:01,VALID,916.223,VALID,0,VALID,100,VALID,-0.237732,VALID,18.4239,VALID,51,VALID,0.348366,
2006-04-25, 03:04:01,VALID,916.211,VALID,0,VALID,100,VALID,-0.288674,VALID,18.0869,VALID,51,VALID,0.178486,
2006-04-25, 03:05:01,VALID,916.194,VALID,0,VALID,100,VALID,-0.288674,VALID,18.5739,VALID,51,VALID,0.0053267,
2006-04-25, 03:06:01,VALID,916.185,VALID,0,VALID,100,VALID,-0.305655,VALID,17.8558,VALID,51,VALID,0,
2006-04-25, 03:07:01,VALID,916.179,VALID,0,VALID,100,VALID,-0.271693,VALID,20.2039,VALID,51,VALID,0,
2006-04-25, 03:08:01,VALID,916.149,VALID,0,VALID,100,VALID,-0.305655,VALID,18.518,VALID,51,VALID,0,
2006-04-25, 03:09:01,VALID,916.117,VALID,0,VALID,100,VALID,-0.288674,VALID,18.951,VALID,51,VALID,0,
2006-04-25, 03:10:01,VALID,916.098,VALID,0,VALID,100,VALID,-0.271693,VALID,18.4582,VALID,51,VALID,0,
2006-04-25, 03:11:01,VALID,916.074,VALID,0,VALID,100,VALID,-0.288674,VALID,19.0584,VALID,51,VALID,0,
2006-04-25, 03:12:01,VALID,916.051,VALID,0,VALID,100,VALID,-0.271693,VALID,18.6511,VALID,51,VALID,0,
2006-04-25, 03:13:01,VALID,916.037,VALID,0,VALID,100,VALID,-0.186789,VALID,18.689,VALID,51,VALID,0,
2006-04-25, 03:14:01,VALID,916.019,VALID,0,VALID,100,VALID,-0.288674,VALID,18.7354,VALID,51,VALID,0,
2006-04-25, 03:15:01,VALID,916.011,VALID,0,VALID,100,VALID,-0.305655,VALID,18.5578,VALID,51,VALID,0,
2006-04-25, 03:16:01,VALID,916.013,VALID,0,VALID,100,VALID,-0.271693,VALID,19.638,VALID,51,VALID,0,
2006-04-25, 03:17:01,VALID,916.007,VALID,0,VALID,100,VALID,-0.271693,VALID,17.9003,VALID,51,VALID,0,
2006-04-25, 03:18:01,VALID,915.987,VALID,0,VALID,100,VALID,-0.288674,VALID,18.4987,VALID,51,VALID,0,
2006-04-25, 03:19:01,VALID,915.964,VALID,0,VALID,100,VALID,-0.288674,VALID,19.5857,VALID,51,VALID,0,
2006-04-25, 03:20:00,VALID,915.957,VALID,0,VALID,100,VALID,-0.305655,VALID,17.5331,VALID,51,VALID,0,
2006-04-25, 03:21:00,VALID,915.945,VALID,0,VALID,100,VALID,-0.288674,VALID,17.7237,VALID,51,VALID,0.193314,
2006-04-25, 03:22:00,VALID,915.959,VALID,0,VALID,100,VALID,-0.305655,VALID,18.9447,VALID,51,VALID,0.102227,
2006-04-25, 03:23:00,VALID,915.946,VALID,0,VALID,100,VALID,-0.305655,VALID,19.4937,VALID,51,VALID,0,
2006-04-25, 03:24:00,VALID,915.935,VALID,0,VALID,100,VALID,-0.288674,VALID,18.495,VALID,51,VALID,0,
2006-04-25, 03:25:00,VALID,915.911,VALID,0,VALID,99.9692,VALID,-0.288674,VALID,19.1343,VALID,51,VALID,0,
2006-04-25, 03:26:00,VALID,915.898,VALID,0,VALID,99.9977,VALID,-0.288674,VALID,19.4306,VALID,51,VALID,0,
2006-04-25, 03:27:00,VALID,915.885,VALID,0,VALID,100,VALID,-0.271693,VALID,17.8385,VALID,51,VALID,0,
2006-04-25, 03:28:00,VALID,915.87,VALID,0,VALID,99.7683,VALID,-0.652828,VALID,18.3997,VALID,51,VALID,0.0138494,
2006-04-25, 03:29:00,VALID,915.873,VALID,0,VALID,99.8896,VALID,-0.305655,VALID,20.6085,VALID,51,VALID,0,
2006-04-25, 03:30:00,VALID,915.883,VALID,0,VALID,100,VALID,-0.305655,VALID,17.5754,VALID,51,VALID,0,
2006-04-25, 03:31:00,VALID,915.895,VALID,0,VALID,100,VALID,-0.288674,VALID,18.2477,VALID,51,VALID,0,
2006-04-25, 03:32:00,VALID,915.898,VALID,0,VALID,100,VALID,-0.220751,VALID,19.865,VALID,51,VALID,0,
2006-04-25, 03:33:00,VALID,915.895,VALID,0,VALID,100,VALID,-0.186789,VALID,18.5391,VALID,51,VALID,0,
2006-04-25, 03:34:00,VALID,915.882,VALID,0,VALID,100,VALID,-0.20377,VALID,18.9837,VALID,51,VALID,0,
2006-04-25, 03:35:00,VALID,915.865,VALID,0,VALID,100,VALID,-0.20377,VALID,18.6795,VALID,51,VALID,0,
2006-04-25, 03:36:00,VALID,915.831,VALID,0,VALID,100,VALID,-0.20377,VALID,18.8472,VALID,51,VALID,0,
2006-04-25, 03:37:00,VALID,915.808,VALID,0,VALID,100,VALID,-0.20377,VALID,18.6628,VALID,51,VALID,0,
2006-04-25, 03:38:00,VALID,915.787,VALID,0,VALID,100,VALID,-0.305655,VALID,18.109,VALID,51,VALID,0.0373476,
2006-04-25, 03:39:00,VALID,915.783,VALID,0,VALID,100,VALID,-0.305655,VALID,17.5381,VALID,51,VALID,0.131747,
2006-04-25, 03:40:00,VALID,915.787,VALID,0,VALID,100,VALID,-0.305655,VALID,19.0702,VALID,51,VALID,0.156432,